Total_Precipitation_Accumulation
0.00 0.00 0.00 0.00 0.01 0.02 0.02 0.02 0.03 0.03 0.04 0.03 0.03 0.04 0.03 0.03 0.03 0.02 0.01 0.01 0.01 0.01 0.02 0.02 0.02 0.02 0.03 0.02 0.02 0.02 0.02 0.02 0.02 0.03 0.02 0.01 0.00 0.00 0.00 0.00 0.00 0.01 0.01
0.00 0.00 0.00 0.00 0.00 0.02 0.02 0.02 0.02 0.02 0.03 0.02 0.01 0.01 0.02 0.02 0.02 0.02 0.02 0.01 0.01 0.01 0.02 0.02 0.02 0.03 0.03 0.03 0.03 0.03 0.03 0.03 0.03 0.06 0.11 0.06 0.01 0.00 0.00 0.00 0.00 0.00 0.01
0.00 0.00 0.00 0.00 0.00 0.01 0.02 0.02 0.02 0.02 0.03 0.02 0.02 0.02 0.02 0.03 0.02 0.02 0.02 0.01 0.01 0.01 0.01 0.01 0.02 0.02 0.02 0.02 0.02 0.02 0.04 0.05 0.03 0.05 0.20 0.29 0.17 0.05 0.01 0.00 0.01 0.01 0.01
0.00 0.00 0.00 0.00 0.00 0.00 0.01 0.02 0.02 0.02 0.03 0.04 0.03 0.02 0.01 0.01 0.01 0.01 0.01 0.01 0.01 0.01 0.01 0.01 0.01 0.02 0.01 0.02 0.02 0.02 0.03 0.07 0.09 0.05 0.08 0.19 0.26 0.29 0.14 0.02 0.02 0.03 0.03
0.00 0.00 0.00 0.00 0.00 0.00 0.01 0.01 0.02 0.02 0.02 0.03 0.03 0.02 0.01 0.00 0.00 0.00 0.01 0.01 0.01 0.01 0.01 0.02 0.02 0.02 0.02 0.02 0.02 0.03 0.04 0.08 0.13 0.13 0.12 0.10 0.10 0.16 0.26 0.12 0.03 0.04 0.04
0.00 0.00 0.00 0.00 0.00 0.00 0.01 0.01 0.02 0.03 0.02 0.02 0.02 0.02 0.01 0.01 0.01 0.01 0.01 0.01 0.02 0.02 0.02 0.02 0.02 0.02 0.02 0.02 0.03 0.04 0.05 0.07 0.09 0.12 0.14 0.18 0.20 0.16 0.22 0.21 0.07 0.03 0.03
0.00 0.00 0.00 0.00 0.00 0.00 0.01 0.02 0.03 0.03 0.03 0.02 0.02 0.02 0.02 0.01 0.01 0.01 0.01 0.02 0.03 0.03 0.02 0.02 0.02 0.02 0.02 0.03 0.04 0.06 0.07 0.07 0.10 0.12 0.13 0.15 0.16 0.17 0.23 0.28 0.17 0.08 0.03
0.00 0.00 0.00 0.00 0.00 0.00 0.00 0.01 0.02 0.02 0.03 0.03 0.02 0.02 0.02 0.02 0.01 0.01 0.01 0.02 0.04 0.03 0.02 0.02 0.03 0.03 0.03 0.05 0.07 0.08 0.09 0.10 0.12 0.12 0.13 0.17 0.15 0.18 0.25 0.32 0.36 0.28 0.09
0.00 0.00 0.00 0.00 0.00 0.00 0.00 0.01 0.01 0.01 0.02 0.03 0.03 0.03 0.02 0.02 0.01 0.01 0.02 0.02 0.02 0.02 0.01 0.02 0.03 0.04 0.05 0.08 0.10 0.11 0.11 0.13 0.14 0.16 0.18 0.22 0.19 0.20 0.22 0.26 0.37 0.54 0.40
0.00 0.00 0.00 0.00 0.00 0.00 0.00 0.00 0.01 0.02 0.01 0.02 0.03 0.04 0.03 0.02 0.02 0.02 0.02 0.02 0.02 0.01 0.02 0.02 0.04 0.06 0.08 0.09 0.11 0.13 0.13 0.15 0.18 0.22 0.24 0.24 0.23 0.25 0.28 0.30 0.31 0.40 0.50
0.00 0.00 0.01 0.00 0.00 0.00 0.00 0.00 0.01 0.02 0.02 0.02 0.02 0.03 0.04 0.03 0.02 0.02 0.02 0.02 0.02 0.02 0.02 0.03 0.05 0.09 0.10 0.11 0.13 0.14 0.15 0.19 0.19 0.21 0.25 0.26 0.28 0.36 0.39 0.42 0.41 0.37 0.41
0.01 0.01 0.00 0.01 0.01 0.01 0.00 0.00 0.01 0.01 0.01 0.01 0.02 0.01 0.02 0.02 0.03 0.02 0.02 0.02 0.02 0.02 0.02 0.03 0.06 0.11 0.13 0.14 0.17 0.18 0.18 0.21 0.23 0.25 0.29 0.31 0.33 0.39 0.44 0.51 0.52 0.45 0.39
0.01 0.01 0.01 0.01 0.00 0.01 0.01 0.01 0.01 0.01 0.01 0.02 0.02 0.02 0.02 0.01 0.02 0.02 0.02 0.02 0.02 0.02 0.02 0.04 0.09 0.16 0.23 0.21 0.19 0.23 0.25 0.24 0.25 0.29 0.35 0.39 0.43 0.42 0.44 0.55 0.59 0.53 0.45
0.01 0.02 0.02 0.01 0.00 0.00 0.00 0.01 0.01 0.01 0.01 0.01 0.02 0.02 0.02 0.02 0.01 0.01 0.01 0.02 0.02 0.02 0.03 0.04 0.08 0.19 0.32 0.35 0.37 0.40 0.35 0.29 0.24 0.22 0.27 0.40 0.54 0.59 0.64 0.65 0.63 0.64 0.64
0.02 0.02 0.02 0.01 0.01 0.01 0.00 0.00 0.00 0.01 0.01 0.01 0.01 0.01 0.02 0.02 0.02 0.02 0.01 0.01 0.02 0.02 0.03 0.04 0.05 0.16 0.42 0.67 0.85 0.76 0.50 0.33 0.25 0.20 0.23 0.35 0.58 0.76 0.94 1.00 0.88 0.87 0.93
0.02 0.02 0.03 0.02 0.01 0.01 0.01 0.00 0.00 0.00 0.01 0.01 0.01 0.01 0.02 0.02 0.02 0.02 0.02 0.02 0.02 0.02 0.03 0.03 0.04 0.10 0.38 0.76 0.99 0.72 0.39 0.28 0.25 0.24 0.23 0.31 0.53 0.67 0.77 0.91 0.93 0.99 1.14
0.02 0.02 0.03 0.03 0.02 0.01 0.01 0.00 0.00 0.00 0.01 0.01 0.01 0.02 0.02 0.02 0.02 0.03 0.03 0.03 0.03 0.04 0.03 0.04 0.04 0.05 0.21 0.59 0.85 0.60 0.31 0.23 0.22 0.23 0.22 0.26 0.38 0.50 0.58 0.63 0.66 0.72 0.88
0.02 0.01 0.02 0.03 0.02 0.01 0.01 0.00 0.00 0.00 0.00 0.01 0.01 0.01 0.01 0.01 0.02 0.03 0.03 0.04 0.04 0.04 0.04 0.04 0.04 0.04 0.11 0.45 0.74 0.55 0.29 0.20 0.19 0.21 0.19 0.17 0.24 0.37 0.55 0.64 0.60 0.55 0.64
0.02 0.01 0.01 0.02 0.02 0.01 0.01 0.00 0.00 0.00 0.00 0.01 0.01 0.01 0.01 0.01 0.02 0.02 0.03 0.04 0.04 0.05 0.04 0.03 0.03 0.03 0.06 0.31 0.70 0.58 0.27 0.19 0.18 0.19 0.17 0.14 0.15 0.31 0.50 0.54 0.49 0.43 0.50
0.02 0.01 0.01 0.02 0.03 0.02 0.01 0.01 0.00 0.00 0.00 0.01 0.01 0.01 0.01 0.01 0.01 0.02 0.03 0.03 0.04 0.04 0.04 0.03 0.03 0.03 0.04 0.18 0.58 0.66 0.30 0.20 0.16 0.17 0.16 0.19 0.24 0.33 0.42 0.43 0.46 0.54 0.50
0.02 0.01 0.01 0.01 0.02 0.02 0.02 0.01 0.00 0.01 0.00 0.01 0.01 0.01 0.01 0.01 0.02 0.02 0.03 0.03 0.04 0.04 0.04 0.04 0.04 0.04 0.04 0.09 0.36 0.63 0.42 0.27 0.20 0.20 0.21 0.16 0.24 0.31 0.35 0.40 0.45 0.61 0.57
0.03 0.02 0.01 0.01 0.01 0.02 0.02 0.01 0.01 0.00 0.00 0.00 0.01 0.01 0.01 0.02 0.02 0.03 0.03 0.03 0.04 0.04 0.05 0.05 0.05 0.04 0.04 0.09 0.26 0.41 0.41 0.36 0.24 0.22 0.18 0.14 0.20 0.26 0.34 0.37 0.43 0.49 0.51
0.04 0.03 0.01 0.01 0.01 0.01 0.01 0.01 0.00 0.00 0.01 0.00 0.01 0.01 0.02 0.02 0.03 0.03 0.04 0.04 0.06 0.07 0.08 0.08 0.07 0.05 0.05 0.12 0.26 0.24 0.22 0.28 0.28 0.29 0.28 0.21 0.24 0.26 0.22 0.23 0.30 0.34 0.35
0.05 0.04 0.02 0.01 0.01 0.01 0.01 0.00 0.00 0.00 0.00 0.01 0.01 0.01 0.02 0.02 0.03 0.04 0.04 0.06 0.09 0.17 0.17 0.15 0.11 0.09 0.10 0.24 0.36 0.22 0.14 0.20 0.29 0.31 0.25 0.22 0.22 0.18 0.14 0.12 0.14 0.16 0.22
0.05 0.04 0.02 0.01 0.01 0.01 0.00 0.00 0.00 0.00 0.00 0.01 0.01 0.02 0.02 0.03 0.04 0.04 0.04 0.06 0.10 0.22 0.28 0.22 0.21 0.24 0.32 0.40 0.43 0.34 0.28 0.30 0.36 0.40 0.38 0.29 0.23 0.21 0.16 0.12 0.10 0.10 0.13
0.04 0.03 0.02 0.01 0.01 0.01 0.01 0.00 0.00 0.00 0.01 0.01 0.02 0.03 0.03 0.03 0.04 0.04 0.05 0.06 0.08 0.12 0.14 0.15 0.20 0.21 0.33 0.35 0.31 0.30 0.28 0.32 0.35 0.43 0.43 0.28 0.21 0.20 0.18 0.16 0.13 0.11 0.11